Youngstown, OH

5:44 AM EST on December 08, 2019 (GMT -0500)
Youngstown-Warren Regional

Weather History for KYNG - September, 2019

Change the Weather History Date:

Saturday, September 28, 2019

  Actual Average Record
Temperature  
Mean Temperature 72 °F 57 °F  
Max Temperature 82 °F 67 °F 88 °F (1959)
Min Temperature 62 °F 47 °F 29 °F (1991)
Degree Days  
Heating Degree Days 0 9  
Month to date heating degree days 24 128  
Since 1 July heating degree days 30 166  
Cooling Degree Days 7 1  
Month to date cooling degree days 92 50  
Year to date cooling degree days 756 536  
Growing Degree Days 22 (Base 50)    
Moisture  
Dew Point 59 °F    
Average Humidity 69    
Maximum Humidity 93    
Minimum Humidity 51    
Precipitation  
Precipitation T in 0.12 in 1.53 in (1996)
Month to date precipitation 4.51 3.52  
Year to date precipitation 39.03 29.74  
Snow  
Snow 0.00 in 0.00 in - ()
Month to date snowfall 0.0 0.0  
Since 1 July snowfall 0.0 0.0  
Since 1 September snowfall 0.0 0.0  
Snow Depth 0.00 in    
Sea Level Pressure  
Sea Level Pressure 30.05 in    
Wind  
Wind Speed 7 mph ()    
Max Wind Speed 23 mph    
Max Gust Speed 23 mph    
Visibility 9.8 miles    
Events Rain    
T = Trace of Precipitation, MM = Missing Value Source: Averaged Metar Reports

Daily Weather History Graph

Daily Weather History Graph

Search for Another Location

Airport or City:

Astronomy

Sep. 28, 2019 Rise Set
Actual Time 7:16 AM EDT 7:10 PM EDT
Civil Twilight 6:48 AM EDT 7:37 PM EDT
Nautical Twilight 6:16 AM EDT 8:09 PM EDT
Astronomical Twilight 5:43 AM EDT 8:41 PM EDT
Moon 6:49 AM EDT (9/28) 7:35 PM EDT (9/28)
Length of Visible Light 12h 48m
Length of Day
11h 53m
Waning Crescent, 0% of the Moon is Illuminated
Sep 28
Waning Crescent
Sep 28
New
Oct 5
First Quarter
Oct 13
Full
Oct 21
Last Quarter

Hourly Weather History & Observations

Time (EDT) Temp. Heat Index Dew Point Humidity Pressure Visibility Wind Dir Wind Speed Gust Speed Precip Events Conditions
12:51 AM 66.9 °F - 50.0 °F 54% 29.89 in 10.0 mi SSE 5.8 mph - N/A   Mostly Cloudy
1:51 AM 68.0 °F - 51.1 °F 55% 29.89 in 10.0 mi SSE 8.1 mph - N/A   Mostly Cloudy
2:51 AM 68.0 °F - 51.1 °F 55% 29.91 in 10.0 mi South 9.2 mph - N/A   Overcast
3:51 AM 69.1 °F - 54.0 °F 58% 29.91 in 10.0 mi South 8.1 mph - N/A   Overcast
4:51 AM 70.0 °F - 55.0 °F 59% 29.92 in 10.0 mi South 9.2 mph - N/A   Overcast
5:51 AM 69.1 °F - 55.0 °F 61% 29.97 in 10.0 mi West 5.8 mph - 0.00 in Rain Light Rain
6:51 AM 63.0 °F - 55.0 °F 75% 29.98 in 10.0 mi SW 3.5 mph - 0.00 in   Mostly Cloudy
7:51 AM 66.0 °F - 55.9 °F 70% 29.99 in 10.0 mi SSW 6.9 mph - N/A   Mostly Cloudy
8:51 AM 66.9 °F - 57.0 °F 70% 29.98 in 10.0 mi South 5.8 mph - 0.00 in Rain Light Rain
9:51 AM 71.1 °F - 60.1 °F 68% 29.99 in 10.0 mi South 8.1 mph - 0.00 in   Mostly Cloudy
10:51 AM 75.0 °F - 62.1 °F 64% 30.04 in 10.0 mi WSW 12.7 mph - N/A   Mostly Cloudy
11:51 AM 79.0 °F - 62.1 °F 56% 30.05 in 10.0 mi West 11.5 mph - N/A   Scattered Clouds
12:51 PM 80.1 °F 81.5 °F 63.0 °F 56% 30.05 in 10.0 mi West 10.4 mph - N/A   Mostly Cloudy
1:51 PM 81.0 °F 82.2 °F 63.0 °F 54% 30.04 in 10.0 mi WSW 9.2 mph - N/A   Mostly Cloudy
2:51 PM 80.1 °F 81.1 °F 61.0 °F 52% 30.04 in 10.0 mi SSW 6.9 mph - N/A   Mostly Cloudy
3:51 PM 80.1 °F 81.2 °F 62.1 °F 54% 30.05 in 10.0 mi NNW 8.1 mph - N/A   Overcast
4:51 PM 77.0 °F - 62.1 °F 60% 30.07 in 10.0 mi North 10.4 mph - N/A   Overcast
5:51 PM 70.0 °F - 64.0 °F 81% 30.12 in 10.0 mi NNW 6.9 mph - 0.00 in   Overcast
6:51 PM 69.1 °F - 63.0 °F 81% 30.13 in 10.0 mi North 5.8 mph - N/A   Overcast
7:51 PM 66.0 °F - 62.1 °F 87% 30.14 in 10.0 mi NNW 5.8 mph - N/A   Mostly Cloudy
8:51 PM 66.9 °F - 62.1 °F 84% 30.17 in 10.0 mi North 4.6 mph - N/A   Mostly Cloudy
9:14 PM 66.9 °F - 63.0 °F 87% 30.19 in 10.0 mi North 5.8 mph - N/A   Overcast
9:35 PM 66.0 °F - 63.0 °F 90% 30.20 in 9.0 mi North 8.1 mph - N/A   Overcast
9:51 PM 66.9 °F - 63.0 °F 87% 30.19 in 9.0 mi North 6.9 mph - N/A   Overcast
10:51 PM 66.0 °F - 62.1 °F 87% 30.20 in 9.0 mi North 6.9 mph - N/A   Overcast
11:51 PM 64.9 °F - 62.1 °F 90% 30.20 in 9.0 mi North 5.8 mph - N/A   Overcast